Simultaneous Nadir Overpasses (SNOs) Predictions

Prediction of SNOs between AQUA and NPP Satellite Orbit:

Table of predicted SNOs for the next 14.0 days since TLE Epoch: 10/7/2023
Index Date (AQUA) Time (AQUA) Lat,Lon (AQUA) SZA (AQUA ) Date (NPP) Time (NPP) Lat,Lon (NPP) SZA (NPP ) Distance(km) Time Diff (sec)
1 10/07/2023 23:41:20 -80.86, -82.24 85.36 10/07/2023 23:40:13 -80.86, -82.33 85.30 1.63 67
2 10/08/2023 00:30:42 80.91, 86.02 94.57 10/08/2023 00:30:55 80.90, 85.88 94.58 2.42 13
3 10/10/2023 14:15:33 -80.91, 59.91 84.51 10/10/2023 14:15:31 -80.91, 59.82 84.50 1.67 2
4 10/13/2023 04:00:21 80.93, 34.00 96.38 10/13/2023 04:00:05 80.93, 34.11 96.37 1.88 16
5 10/13/2023 04:49:44 -80.96,-157.94 83.67 10/13/2023 04:50:49 -80.95,-158.11 83.69 3.05 65
6 10/15/2023 17:45:08 -80.91, 7.60 82.68 10/15/2023 17:44:41 -80.91, 7.53 82.65 1.32 27
7 10/15/2023 18:34:30 80.95, 175.77 97.27 10/15/2023 18:35:23 80.95, 175.72 97.24 0.77 53
8 10/18/2023 07:29:53 80.90, -18.71 98.26 10/18/2023 07:29:16 80.90, -18.74 98.29 0.51 37
9 10/18/2023 08:19:15 -80.96, 149.73 81.85 10/18/2023 08:19:58 -80.96, 149.78 81.89 0.88 43
10 10/20/2023 21:14:36 -80.91, -44.71 80.88 10/20/2023 21:13:51 -80.91, -44.76 80.84 1.02 45



Historial Predications of SNOs between AQUA and NPP
